COSMOS 2251 DEB

Satellite information

Favourite Embed

Satellite Type and Status

DEBRISIN ORBIT

Key statistics

Satellite COSMOS 2251 DEB at a glance.

Uptime

11650

Days in orbit

Revolutions

≈ 14.0

Per day

Orbit

LEO

Low Earth Orbit

Inclination

74.0

Latest

Satellite identification and parameters

Extended collection of information and parameters for COSMOS 2251 DEB.

Object identification

Identified? True

Debris? True

Object name: COSMOS 2251 DEB

International designator: 1993-036XP

Object number (NORAD): 34642

Object ID (CCSDS): 34642

Country: COMMONWEALTH OF INDEPENDENT STATES (CIS)

Current information (Y/N): Y

RCS size: SMALL

Orbital parameters

Period: 103.014 minutes

Inclination: 74.0068 deg

SMA: 7279.332 km

Apoapsis: 1054.908 km

Periapsis: 747.485 km

RAAN: 1.5287 deg

Eccentricy: 0.0211161

Argument of periapsis: 228.2388 deg

Mean anomaly: 293.9818 deg

Mean motion: 13.97865893 rev/day

Mean motion (dot): 0.00001996 rev/day2

B* drag term: 0.0011802 1/REarth

Two-line elements (TLE)

Creation date: May 7, 2025, 3:14 a.m.

Reference frame: TEME

Reference center: EARTH

Epoch: May 6, 2025, 3:05 a.m. UTC

TLE line 0: 0 COSMOS 2251 DEB

TLE line 1: 1 34642U 93036XP 25126.12878466 .00001996 00000-0 11802-2 0 9997

TLE line 2: 2 34642 74.0068 1.5287 0211161 228.2388 293.9818 13.97865893822094

Live tracking on map

Real-time ground track for satellite COSMOS 2251 DEB.

In-orbit conjunctions

A list of the most updated potential collisions computed for object COSMOS 2251 DEB.

Target Orbit TCA Probability of collision Miss distance Type
CZ-6A DEB LEO 2025-01-16 10:40:51 0.0001820488 304.0 (m) DEBRIS
CZ-6A DEB LEO 2024-12-08 07:14:13 0.0001629516 472.0 (m) DEBRIS

Associated space launch

Military communications satellite. Destroyed in a collision with Iridium 33.

COSMOS 2251 DEB was lifted into orbit during the mission ‘Kosmos-3M | Strela-2M 51’, on board a Kosmos-3M space rocket.

The launch took place on June 16, 1993, 4:17 a.m. from 132/1 (132L).

For more information about the launch, click the button.

Launch to space Kosmos-3M | Strela-2M 51
Kosmos-3M | Strela-2M 51

Agency: N/A

Status: Launch Successful

Launch date: June 16, 1993, 4:17 a.m. UTC

Rocket: Kosmos-3M

Launch pad: 132/1 (132L)

Location: Plesetsk Cosmodrome, Russian Federation

...

Latest news about this satellite

There are no fresh news available about this satellite. Check back as we update our databases every day.


Newsletter sign-up

Weekly statistics, charts and insights to help you stay on top of the space industry.